User: anonymous   Login
Location: Oshawa
(43.9000°N, 78.8670°W)
Time: 08:14:40
(UTC-05:00)
Language:

SPOT 5 - Orbit

View from above orbital plane
View from above orbital plane
View from above satellite
View from above satellite

Ground track
Ground track

The orbit data is extracted from the following two-line orbital elements,

1 27421U 02021A   15032.19874429  .00000120  00000-0  76057-4 0  3598
2 27421 098.5326 092.6933 0001038 097.8391 354.2167 14.20121192660825
Epoch (UTC): 01 February 2015 04:46:11
Eccentricity: 0.0001038
inclination: 98.5326°
perigee height: 824 km
apogee height: 825 km
right ascension of ascending node: 92.6933°
argument of perigee: 97.8391°
revolutions per day: 14.20121192
mean anomaly at epoch: 354.2167°
orbit number at epoch: 66082

The dashed part of the orbit path shows where the satellite is in the earth's shadow,  

DLR